Regional Weather Roundup
Issued by NWS Goodland, KS

Home | Current Version | Previous Version | Graphics & Text | Print | Product List | Glossary On
Versions: 1 2 3 4 5 6 7 8 9 10 11 12 13 14 15 16 17 18 19 20 21 22 23 24 25 26 27 28 29 30 31 32 33 34 35 36 37 38 39 40 41 42 43 44 45 46 47 48 49 50
000
ASUS43 KGLD 230108
RWRGLD

GOODLAND FORECAST AREA HOURLY WEATHER ROUNDUP
NATIONAL WEATHER SERVICE GOODLAND KS
700 PM MDT MON SEP 22 2014

...OFFICIAL OBSERVATIONS...

CITY           SKY/WX    TMP DP  RH WIND       PRES   REMARKS
GOODLAND KS    MOCLDY    68  54  60 S20       30.08F
HILL CITY KS   CLOUDY    71  46  40 SE9       30.12S
IMPERIAL NEB   CLOUDY    69  48  47 SE15      30.09R
MCCOOK NEB     CLOUDY    72  45  37 SE10      30.10R
AKRON CO       MOCLDY    61  58  90 S13       30.07R
BURLINGTON CO  MOCLDY    72  55  55 S21G36    30.06F
LIMON CO       MOCLDY    71  53  52 SW8       30.09F
$$

...UNOFFICIAL OBSERVATIONS...

CITY           SKY/WX    TMP DP  RH WIND       PRES   REMARKS
COLBY KS       CLEAR     70  54  56 SE13G20   30.10F
GOVE KS          N/A     68  32  26 MISG        N/A
NORTON KS      PTCLDY    70  39  32 SE14      30.10S
SHARON SPRINGS   N/A     72  55  55 S13G23      N/A
WAKEENEY KS      N/A     72  40  31 MISG        N/A
TRENTON NEB      N/A     71  32  23 SE12        N/A
KIT CARSON CO    N/A     72  57  59 N18G25      N/A
YUMA CO          N/A     62  59  89 S9          N/A
$$



USA.gov is the U.S. government's official web portal to all federal, state and local government web resources and services.